This is the latest recevied weather packets stored in our database for station/object IZ1UQG-N2. If no packets are shown the sender has not sent any weather packets the latest 10 day(s).
| Time | Temp. | Humidity | Pressure | Rain* | Wind** | Luminosity | Snow |
|---|---|---|---|---|---|---|---|
| 1787610662 | 18.89° C | 90% | 1012.1 hPa | 19.05 mm | - | 0 W/m² | - |
| 1787610602 | 18.33° C | 91% | 1012 hPa | 18.54 mm | - | 0 W/m² | - |
| 1787610544 | 18.33° C | 91% | 1012 hPa | 18.54 mm | - | 0 W/m² | - |
| 1787610483 | 18.33° C | 90% | 1012.1 hPa | 18.29 mm | - | 0 W/m² | - |
| 1787610423 | 18.33° C | 90% | 1012.1 hPa | 17.53 mm | - | 0 W/m² | - |
| 1787610363 | 18.33° C | 90% | 1012.1 hPa | 17.27 mm | - | 0 W/m² | - |
| 1787610303 | 18.33° C | 90% | 1012.3 hPa | 17.02 mm | - | 0 W/m² | - |
| 1787610242 | 18.33° C | 90% | 1012.3 hPa | 16.76 mm | - | 0 W/m² | - |
| 1787610182 | 18.33° C | 91% | 1012.4 hPa | 16.76 mm | - | 0 W/m² | - |
| 1787610122 | 18.33° C | 90% | 1012.3 hPa | 16.76 mm | - | 0 W/m² | - |
| 1787610062 | 18.33° C | 90% | 1012.3 hPa | 16.51 mm | - | 0 W/m² | - |
| 1787610002 | 18.33° C | 90% | 1012.3 hPa | 16.51 mm | - | 0 W/m² | - |
| 1787609943 | 18.33° C | 90% | 1012 hPa | 16.26 mm | - | 0 W/m² | - |
| 1787609883 | 18.33° C | 90% | 1012.1 hPa | 16 mm | - | 0 W/m² | - |
| 1787609823 | 18.33° C | 90% | 1012 hPa | 16 mm | - | 0 W/m² | - |
| 1787609763 | 18.33° C | 90% | 1012.2 hPa | 15.75 mm | - | 0 W/m² | - |
| 1787609703 | 18.33° C | 89% | 1012.2 hPa | 15.75 mm | - | 0 W/m² | - |
| 1787609642 | 18.33° C | 89% | 1012.3 hPa | 15.24 mm | - | 0 W/m² | - |
| 1787609582 | 18.33° C | 89% | 1012.3 hPa | 14.99 mm | - | 0 W/m² | - |
| 1787609522 | 18.33° C | 89% | 1012.3 hPa | 13.97 mm | - | 0 W/m² | - |
| 1787609462 | 18.33° C | 89% | 1012.3 hPa | 13.72 mm | - | 0 W/m² | - |
| 1787609404 | 18.33° C | 89% | 1012.4 hPa | 13.72 mm | - | 0 W/m² | - |
| 1787609343 | 18.33° C | 89% | 1012.4 hPa | 13.46 mm | - | 0 W/m² | - |
| 1787609283 | 18.33° C | 89% | 1012.4 hPa | 12.95 mm | - | 0 W/m² | - |
| 1787609223 | 18.33° C | 89% | 1012.5 hPa | 12.45 mm | - | 0 W/m² | - |
* Rain latest hour (hover to see other rain measurements)
** Current wind speed in m/s (hover to see current wind gust speed)